CW0451 Weather Reports


Display with metric or nautical units.
time (UTC)temp
F
wind
direction
speed
MPH
gust
MPH
rain 1hr
in
rain 24hr
in
rain mn
in
humidity
%
barometer
mb
20260831005103 71 216 3.0 7.0 0.00 0.00 0.00 85 1016.2
20260831004103 71 252 4.0 8.0 0.00 0.00 0.00 84 1016.1
20260831003104 72 253 3.0 7.0 0.00 0.00 0.00 84 1016.1
20260831002145 72 245 3.0 8.0 0.00 0.00 0.00 82 1016.2
20260831001104 72 240 3.0 6.0 0.00 0.00 0.00 81 1016.0
20260831000103 72 241 3.0 6.0 0.00 0.00 0.00 79 1016.0
20260830235125 72 239 3.0 6.0 0.00 0.00 0.00 77 1015.8
20260830234103 73 206 2.0 8.0 0.00 0.00 0.00 75 1015.7
20260830233145 73 193 3.0 7.0 0.00 0.00 0.00 74 1015.7
20260830232104 73 222 4.0 6.0 0.00 0.00 0.00 73 1015.8
20260830231103 73 223 2.0 6.0 0.00 0.00 0.00 71 1015.7
20260830230104 74 242 3.0 9.0 0.00 0.00 0.00 70 1015.7
20260830225125 74 208 3.0 8.0 0.00 0.00 0.00 68 1015.8
20260830224124 75 234 4.0 9.0 0.00 0.00 0.00 66 1015.9
20260830223103 75 263 3.0 9.0 0.00 0.00 0.00 64 1016.0
20260830222103 75 306 4.0 10.0 0.00 0.00 0.00 64 1016.2
20260830221104 75 255 5.0 10.0 0.00 0.00 0.00 63 1016.2
20260830220124 75 252 4.0 8.0 0.00 0.00 0.00 62 1016.2
20260830215103 75 236 5.0 12.0 0.00 0.00 0.00 61 1016.1
20260830214104 76 240 4.0 12.0 0.00 0.00 0.00 60 1016.2
20260830213103 76 254 4.0 11.0 0.00 0.00 0.00 60 1016.2
20260830212104 76 241 4.0 16.0 0.00 0.00 0.00 59 1016.2
20260830211103 77 256 6.0 14.0 0.00 0.00 0.00 61 1016.2
20260830210104 77 248 7.0 15.0 0.00 0.00 0.00 61 1016.1
20260830205103 77 201 7.0 13.0 0.00 0.00 0.00 60 1016.1
20260830204103 78 219 7.0 12.0 0.00 0.00 0.00 59 1016.1
20260830203103 79 226 3.0 11.0 0.00 0.00 0.00 59 1016.2
20260830202103 79 210 3.0 11.0 0.00 0.00 0.00 59 1016.3
20260830201103 79 233 3.0 9.0 0.00 0.00 0.00 56 1016.2
20260830200104 79 240 5.0 11.0 0.00 0.00 0.00 54 1016.2
20260830195103 80 250 4.0 13.0 0.00 0.00 0.00 54 1016.5
20260830194104 80 236 5.0 10.0 0.00 0.00 0.00 55 1016.6
20260830193103 81 244 3.0 13.0 0.00 0.00 0.00 54 1016.7
20260830192103 81 241 3.0 13.0 0.00 0.00 0.00 54 1016.8
20260830191103 80 220 2.0 9.0 0.00 0.00 0.00 54 1016.9
20260830190103 81 242 5.0 10.0 0.00 0.00 0.00 51 1016.9
20260830185103 82 258 4.0 14.0 0.00 0.00 0.00 50 1017.2
20260830184103 83 222 2.0 12.0 0.00 0.00 0.00 48 1017.2
20260830183103 84 218 4.0 12.0 0.00 0.00 0.00 47 1017.2
20260830182103 84 246 5.0 15.0 0.00 0.00 0.00 46 1017.3
20260830181146 84 252 9.0 16.0 0.00 0.00 0.00 47 1017.6
20260830180124 84 271 3.0 17.0 0.00 0.00 0.00 48 1017.6
20260830175103 84 233 4.0 15.0 0.00 0.00 0.00 50 1017.7
20260830174103 84 274 4.0 12.0 0.00 0.00 0.00 48 1017.8
20260830173124 84 228 6.0 13.0 0.00 0.00 0.00 47 1017.7
20260830172125 84 293 4.0 14.0 0.00 0.00 0.00 44 1017.9
20260830171103 83 247 8.0 17.0 0.00 0.00 0.00 45 1017.8
20260830170103 83 259 7.0 14.0 0.00 0.00 0.00 47 1018.0
20260830165103 82 241 6.0 15.0 0.00 0.00 0.00 54 1018.2
20260830164103 82 227 6.0 16.0 0.00 0.00 0.00 52 1018.1
20260830163104 82 223 6.0 14.0 0.00 0.00 0.00 52 1018.2
20260830162103 82 226 7.0 13.0 0.00 0.00 0.00 53 1018.3
20260830161104 82 263 7.0 13.0 0.00 0.00 0.00 53 1018.5
20260830160103 81 250 6.0 11.0 0.00 0.00 0.00 55 1018.5
20260830155125 81 244 6.0 15.0 0.00 0.00 0.00 56 1018.7
20260830154104 81 241 4.0 12.0 0.00 0.00 0.00 56 1018.8
20260830153124 80 235 6.0 12.0 0.00 0.00 0.00 58 1018.8
20260830152103 80 294 2.0 10.0 0.00 0.00 0.00 56 1018.9
20260830151103 79 233 3.0 10.0 0.00 0.00 0.00 57 1019.0
20260830145104 78 289 4.0 12.0 0.00 0.00 0.00 62 1019.4
20260830144124 78 232 3.0 13.0 0.00 0.00 0.00 61 1019.5
20260830143124 78 243 5.0 14.0 0.00 0.00 0.00 63 1019.5
20260830142104 76 279 2.0 8.0 0.00 0.00 0.00 63 1019.5
20260830141103 76 271 3.0 10.0 0.00 0.00 0.00 61 1019.5
20260830135103 75 273 3.0 11.0 0.00 0.00 0.00 67 1019.8
20260830134103 74 273 5.0 9.0 0.00 0.00 0.00 66 1019.8
20260830133103 74 224 2.0 9.0 0.00 0.00 0.00 68 1020.1
20260830132103 73 258 4.0 7.0 0.00 0.00 0.00 72 1020.0
20260830131103 72 245 3.0 6.0 0.00 0.00 0.00 73 1020.1
20260830125104 71 274 2.0 9.0 0.00 0.00 0.00 73 1020.3
20260830124103 70 234 4.0 7.0 0.00 0.00 0.00 77 1020.4
20260830123104 70 260 3.0 7.0 0.00 0.00 0.00 77 1020.3
20260830121103 67 232 2.0 7.0 0.00 0.00 0.00 83 1020.5
20260830120125 66 277 3.0 5.0 0.00 0.00 0.00 86 1020.4
20260830115103 64 269 3.0 5.0 0.00 0.00 0.00 89 1020.4
20260830114104 63 281 2.0 5.0 0.00 0.00 0.00 91 1020.4
20260830113124 62 255 2.0 4.0 0.00 0.00 0.00 91 1020.5
20260830112103 62 263 1.0 7.0 0.00 0.00 0.00 91 1020.5
20260830111104 61 254 3.0 8.0 0.00 0.00 0.00 92 1020.3
20260830110125 60 250 1.0 6.0 0.00 0.00 0.00 92 1020.3
20260830105103 59 245 2.0 5.0 0.00 0.00 0.00 93 1020.4
20260830104104 58 260 3.0 7.0 0.00 0.00 0.00 94 1020.4
20260830103103 58 232 2.0 5.0 0.00 0.00 0.00 94 1020.5
20260830102103 57 257 2.0 5.0 0.00 0.00 0.00 94 1020.6
20260830101103 57 257 2.0 5.0 0.00 0.00 0.00 94 1020.6
20260830100125 56 249 3.0 5.0 0.00 0.00 0.00 95 1020.6
20260830095103 56 245 2.0 5.0 0.00 0.00 0.00 96 1020.6
20260830094103 55 251 3.0 6.0 0.00 0.00 0.00 95 1020.5
20260830093103 55 245 1.0 4.0 0.00 0.00 0.00 94 1020.5
20260830092103 56 233 2.0 4.0 0.00 0.00 0.00 95 1020.4
20260830091103 56 225 1.0 4.0 0.00 0.00 0.00 96 1020.5
20260830090103 56 247 1.0 5.0 0.00 0.00 0.00 96 1020.6
20260830085104 55 248 2.0 4.0 0.00 0.00 0.00 96 1020.7
20260830084103 55 225 1.0 4.0 0.00 0.00 0.00 95 1020.9
20260830083104 55 259 1.0 3.0 0.00 0.00 0.00 96 1021.2
20260830082103 54 236 2.0 3.0 0.00 0.00 0.00 96 1021.3
20260830081104 54 253 2.0 6.0 0.00 0.00 0.00 95 1021.3
20260830075104 54 255 1.0 4.0 0.00 0.00 0.00 95 1021.1
20260830074125 54 245 2.0 4.0 0.00 0.00 0.00 95 1021.1
20260830073103 54 257 1.0 3.0 0.00 0.00 0.00 95 1021.0
20260830072103 54 249 1.0 4.0 0.00 0.00 0.00 94 1020.8
20260830071103 54 261 1.0 3.0 0.00 0.00 0.00 95 1020.8
20260830070103 54 279 0.0 1.0 0.00 0.00 0.00 95 1020.8
20260830065104 54 279 0.0 0.0 0.00 0.00 0.00 95 1020.7
20260830064104 54 279 0.0 0.0 0.00 0.00 0.00 95 1020.8
20260830063103 54 279 0.0 0.0 0.00 0.00 0.00 94 1020.8
20260830062103 55 279 0.0 2.0 0.00 0.00 0.00 95 1020.8
20260830061124 55 277 0.0 3.0 0.00 0.00 0.00 94 1020.9
20260830060124 55 246 1.0 3.0 0.00 0.00 0.00 94 1020.9
20260830055104 55 297 0.0 1.0 0.00 0.00 0.00 94 1020.9
20260830054103 55 298 0.0 1.0 0.00 0.00 0.00 94 1020.9
20260830053104 55 297 0.0 2.0 0.00 0.00 0.00 94 1020.8
20260830052103 55 266 0.0 2.0 0.00 0.00 0.00 94 1020.7
20260830051104 56 241 1.0 3.0 0.00 0.00 0.00 94 1020.9
20260830045103 56 249 2.0 5.0 0.00 0.00 0.00 94 1020.8
20260830044103 56 239 0.0 2.0 0.00 0.00 0.00 94 1020.8
20260830043103 56 247 0.0 2.0 0.00 0.00 0.00 93 1020.8
20260830042103 56 258 1.0 3.0 0.00 0.00 0.00 93 1020.9
20260830041103 57 253 2.0 6.0 0.00 0.00 0.00 93 1020.9
20260830035103 57 253 2.0 4.0 0.00 0.00 0.00 93 1020.8
20260830034103 57 221 0.0 3.0 0.00 0.00 0.00 93 1020.7
20260830033103 57 253 0.0 1.0 0.00 0.00 0.00 93 1020.7
20260830032104 58 253 0.0 3.0 0.00 0.00 0.00 92 1020.8
20260830031103 58 252 1.0 3.0 0.00 0.00 0.00 92 1020.8
20260830025124 59 255 2.0 4.0 0.00 0.00 0.00 92 1020.8
20260830024103 59 251 1.0 4.0 0.00 0.00 0.00 91 1020.8
20260830023103 59 248 1.0 5.0 0.00 0.00 0.00 91 1020.8
20260830022124 60 253 2.0 4.0 0.00 0.00 0.00 91 1020.8
20260830021103 60 240 1.0 4.0 0.00 0.00 0.00 90 1020.8
20260830020103 60 248 1.0 3.0 0.00 0.00 0.00 90 1020.7
20260830015103 61 250 1.0 3.0 0.00 0.00 0.00 88 1020.6
20260830014103 62 243 1.0 4.0 0.00 0.00 0.00 87 1020.6
20260830013104 62 233 2.0 6.0 0.00 0.00 0.00 86 1020.7
20260830012103 63 226 1.0 4.0 0.00 0.00 0.00 84 1020.8
20260830011104 63 224 2.0 4.0 0.00 0.00 0.00 83 1020.8
20260830010103 63 217 3.0 5.0 0.00 0.00 0.00 83 1020.8